[TLELIST] Archives

 

[list_settings.list_name] Current TLEs

January 16th 2021 PST

HST 1 20580U 90037B 21015.67925567 .00000496 00000-0 19084-4 0 9995 2 20580 28.4712 355.8616 0002574 211.9126 311.1585 15.09535467487991 ISS (ZARYA) 1 25544U 98067A 21016.36863988 .00001366 00000-0 32598-4 0 9998 2 25544 51.6457 13.6401 0000235 231.5974 276.0641 15.49297929265068 CXO 1 25867U 99040B 21017.37004631 .00000349 00000-0 00000-0 0 9991 2 25867 58.4148 260.7149 8080392 226.4302 0.0942 0.37804695 9868 ____________________________________________________________________ These 2-Line ...Continue Reading

[list_settings.list_name] Current TLEs

January 15th 2021 PST

HST 1 20580U 90037B 21015.20534441 .00000503 00000-0 19538-4 0 9994 2 20580 28.4712 358.9967 0002600 206.5276 256.0500 15.09535212488072 ISS (ZARYA) 1 25544U 98067A 21015.26182017 .00001768 00000-0 39819-4 0 9992 2 25544 51.6458 19.1177 0000366 230.0121 220.3312 15.49295652264891 CXO 1 25867U 99040B 21017.37004631 .00000349 00000-0 00000-0 0 9991 2 25867 58.4148 260.7149 8080392 226.4302 0.0942 0.37804695 9868 ____________________________________________________________________ These 2-Line ...Continue Reading

[list_settings.list_name] Current TLEs

January 14th 2021 PST

HST 1 20580U 90037B 21013.69581631 .00000521 00000-0 20608-4 0 9998 2 20580 28.4713 8.9826 0002653 189.9964 333.0544 15.09534304487697 ISS (ZARYA) 1 25544U 98067A 21014.31054398 .00001697 00000-0 38545-4 0 9993 2 25544 51.6457 23.8259 0000410 224.6534 316.4858 15.49291243264748 CXO 1 25867U 99040B 21017.37004631 .00000349 00000-0 00000+0 0 9990 2 25867 58.4148 260.7149 8080392 226.4302 0.0942 0.37804695 21008 ____________________________________________________________________ These 2-Line ...Continue Reading

[list_settings.list_name] Current TLEs

January 13th 2021 PST

HST 1 20580U 90037B 21012.70412600 .00000548 00000-0 22275-4 0 9999 2 20580 28.4713 15.5429 0002696 179.2736 343.9306 15.09533805487541 ISS (ZARYA) 1 25544U 98067A 21013.46059999 .00001407 00000-0 33353-4 0 9991 2 25544 51.6460 28.0330 0000426 223.0743 254.4188 15.49286428264613 CXO 1 25867U 99040B 21014.72699028 .00000359 00000-0 00000-0 0 9998 2 25867 58.4564 260.7885 8076144 226.4554 0.2346 0.37807204 9865 ____________________________________________________________________ These 2-Line ...Continue Reading

[list_settings.list_name] Current TLEs

January 12th 2021 PST

HST 1 20580U 90037B 21011.43946257 .00000498 00000-0 19254-4 0 9995 2 20580 28.4712 23.9090 0002750 165.7617 311.2336 15.09532625487355 ISS (ZARYA) 1 25544U 98067A 21012.36590653 .00001229 00000-0 30152-4 0 9992 2 25544 51.6462 33.4496 0000452 211.9192 275.9732 15.49281578264446 CXO 1 25867U 99040B 21012.08483220 .00000341 00000-0 00000-0 0 9991 2 25867 58.5222 260.8760 8070837 226.4831 0.4997 0.37801937 9840 ____________________________________________________________________ These 2-Line ...Continue Reading

[list_settings.list_name] Current TLEs

January 11th 2021 PST

HST 1 20580U 90037B 21011.28575937 .00000511 00000-0 20010-4 0 9999 2 20580 28.4735 24.9281 0003004 165.3396 194.7278 15.09532942487481 ISS (ZARYA) 1 25544U 98067A 21011.39930122 .00001177 00000-0 29227-4 0 9996 2 25544 51.6469 38.2316 0000504 209.0007 284.1827 15.49278328264297 CXO 1 25867U 99040B 21012.08483220 .00000341 00000-0 00000-0 0 9991 2 25867 58.5222 260.8760 8070837 226.4831 0.4997 0.37801937 9840 ____________________________________________________________________ These 2-Line ...Continue Reading

[list_settings.list_name] Current TLEs

January 10th 2021 PST

HST 1 20580U 90037B 21009.79503049 .00000521 00000-0 20652-4 0 9990 2 20580 28.4712 34.7872 0002816 148.6944 14.2248 15.09531668487100 ISS (ZARYA) 1 25544U 98067A 21010.42480686 .00001389 00000-0 33030-4 0 9996 2 25544 51.6467 43.0535 0000623 207.3090 247.1475 15.49275874264142 CXO 1 25867U 99040B 21012.08483220 .00000341 00000-0 00000-0 0 9991 2 25867 58.5222 260.8760 8070837 226.4831 0.4997 0.37801937 9840 ____________________________________________________________________ These 2-Line ...Continue Reading

[list_settings.list_name] Current TLEs

January 9th 2021 PST

HST 1 20580U 90037B 21008.80330436 .00000524 00000-0 20837-4 0 9997 2 20580 28.4711 41.3478 0002848 138.5425 24.3441 15.09530980486957 ISS (ZARYA) 1 25544U 98067A 21009.39812023 .00001808 00000-0 40563-4 0 9999 2 25544 51.6462 48.1342 0000551 205.2312 279.2215 15.49273613263981 CXO 1 25867U 99040B 21009.43773594 .00000366 00000-0 00000-0 0 9999 2 25867 58.5739 260.9474 8066708 226.5307 0.0669 0.37803089 9838 ____________________________________________________________________ These 2-Line ...Continue Reading

[list_settings.list_name] Current TLEs

January 8th 2021 PST

HST 1 20580U 90037B 21007.47604198 .00000548 00000-0 22242-4 0 9996 2 20580 28.4710 50.1280 0002888 125.1023 10.7318 15.09530132486776 ISS (ZARYA) 1 25544U 98067A 21008.41078817 .00001907 00000-0 42360-4 0 9993 2 25544 51.6453 53.0183 0000571 194.6399 179.4598 15.49269883263830 CXO 1 25867U 99040B 21009.43773594 .00000366 00000-0 00000-0 0 9999 2 25867 58.5739 260.9474 8066708 226.5307 0.0669 0.37803089 9838 ____________________________________________________________________ These 2-Line ...Continue Reading

[list_settings.list_name] Current TLEs

January 7th 2021 PST

HST 1 20580U 90037B 21006.81994753 .00000594 00000-0 25085-4 0 9991 2 20580 28.4710 54.4682 0002900 118.3437 45.0048 15.09529950486673 ISS (ZARYA) 1 25544U 98067A 21007.32953112 .00000789 00000-0 22255-4 0 9990 2 25544 51.6452 58.3686 0000693 182.6292 276.9175 15.49260299263666 CXO 1 25867U 99040B 21009.43773594 .00000366 00000-0 00000-0 0 9999 2 25867 58.5739 260.9474 8066708 226.5307 0.0669 0.37803089 9838 ____________________________________________________________________ These 2-Line ...Continue Reading
  • This mailing list is a public mailing list - anyone may join or leave, at any time.
  • This mailing list is announce-only.

International Space Station (ISS) / Hubble Space Telescope (HST) / Chandra X-Ray Observatory Orbital Data via EMAIL

Privacy Policy:

Private list